Grand Marais, MN

3:40 AM CST on November 14, 2019 (GMT -0600)
Grand Marais

Weather History for KGNA - September, 2019

Change the Weather History Date:

Tuesday, September 3, 2019

  Actual Average (KCKC) Record (KCKC)
Temperature  
Mean Temperature 54 °F -  
Max Temperature 61 °F 65 °F 80 °F (2012)
Min Temperature 48 °F 47 °F 28 °F (1997)
Degree Days  
Heating Degree Days 11    
Growing Degree Days 4 (Base 50)    
Moisture  
Dew Point 48 °F    
Average Humidity 87    
Maximum Humidity 100    
Minimum Humidity 74    
Precipitation  
Precipitation 0.43 in - - ()
Sea Level Pressure  
Sea Level Pressure 29.79 in    
Wind  
Wind Speed 10 mph (NE)    
Max Wind Speed 17 mph    
Max Gust Speed 24 mph    
Averages and records for this station are not official NWS values.
T = Trace of Precipitation, MM = Missing Value Source: NWS Daily Summary

Daily Weather History Graph

Daily Weather History Graph

Search for Another Location

Airport or City:

Astronomy

Sep. 03, 2019 Rise Set
Actual Time 6:22 AM CDT 7:38 PM CDT
Civil Twilight 5:50 AM CDT 8:10 PM CDT
Nautical Twilight 5:11 AM CDT 8:48 PM CDT
Astronomical Twilight 4:30 AM CDT 9:29 PM CDT
Moon 11:35 AM CDT (9/3) 10:12 PM CDT (9/3)
Length of Visible Light 14h 19m
Length of Day
13h 16m
Waxing Crescent, 25% of the Moon is Illuminated
Sep 3
Waxing Crescent
Sep 5
First Quarter
Sep 13
Full
Sep 21
Last Quarter
Sep 28
New

Hourly Weather History & Observations

Time (CDT) Temp. Dew Point Humidity Pressure Visibility Wind Dir Wind Speed Gust Speed Precip Events Conditions
12:56 AM 51.1 °F 46.9 °F 86% 29.94 in - NE 10.4 mph - 0.01 in   Unknown
1:56 AM 51.1 °F 45.0 °F 80% 29.91 in - NE 15.0 mph 19.6 mph N/A   Unknown
2:56 AM 51.1 °F 44.1 °F 77% 29.87 in - NE 12.7 mph - N/A   Unknown
3:56 AM 51.1 °F 43.0 °F 74% 29.85 in - NE 15.0 mph 20.7 mph N/A   Unknown
4:56 AM 52.0 °F 45.0 °F 77% 29.82 in - ENE 17.3 mph - N/A   Unknown
5:56 AM 52.0 °F 46.9 °F 83% 29.80 in - ENE 16.1 mph 23.0 mph N/A   Unknown
6:56 AM 51.1 °F 48.0 °F 89% 29.75 in - ENE 12.7 mph 23.0 mph 0.01 in   Unknown
7:56 AM 52.0 °F 50.0 °F 93% 29.71 in - ENE 12.7 mph 24.2 mph 0.02 in   Unknown
8:56 AM 51.1 °F 50.0 °F 96% 29.67 in - ENE 15.0 mph - 0.12 in   Unknown
9:56 AM 52.0 °F 51.1 °F 97% 29.66 in - NE 9.2 mph - 0.25 in   Unknown
10:56 AM 53.1 °F 51.1 °F 93% 29.64 in - ENE 6.9 mph - 0.02 in   Unknown
11:56 AM 53.1 °F 51.1 °F 93% 29.64 in - ENE 4.6 mph - N/A   Unknown
12:56 PM 50.0 °F 48.9 °F 96% 29.65 in - Calm Calm - N/A   Unknown
1:56 PM 48.0 °F 48.0 °F 100% 29.67 in - WSW 4.6 mph - N/A   Unknown
2:56 PM 51.1 °F 50.0 °F 96% 29.69 in - WSW 8.1 mph - N/A   Unknown
3:56 PM 48.0 °F 48.0 °F 100% 29.72 in - WSW 4.6 mph - N/A   Unknown
5:56 PM 60.1 °F 53.1 °F 78% 29.77 in - NNW 4.6 mph - N/A   Unknown
6:56 PM 57.9 °F 52.0 °F 81% 29.81 in - Variable 4.6 mph - N/A   Unknown
7:56 PM 55.9 °F 50.0 °F 80% 29.85 in - Variable 3.5 mph - N/A   Unknown
8:56 PM 55.0 °F 48.9 °F 80% 29.88 in - North 4.6 mph - N/A   Unknown
9:56 PM 53.1 °F 48.0 °F 83% 29.92 in - Calm Calm - N/A   Unknown
10:56 PM 51.1 °F 46.9 °F 86% 29.95 in - Calm Calm - N/A   Unknown
11:56 PM 52.0 °F 46.9 °F 83% 29.99 in - Calm Calm - N/A   Unknown